Home > Weather > Summerside > Past weeks

Flag for Canada Weather for the Past 2 Weeks in Summerside, Prince Edward Island, Canada

Now
24 °F

Cold.


Feels Like: 7 °F
Forecast: 24 / 28 °F
Wind: 28 mph from Northeast

Location: Summerside Airport

Current Time: Feb 9, 2016 at 8:31:39 AM

Latest Report: Feb 9, 2016 at 7:00 AM


Visibility: N/A

Pressure: 29.60 "Hg

Humidity: 89%

Dew point: 21 °F

Location of SummersideLocation

Historic Weather in Summerside — Graph

°F

Summerside Temperature Yesterday

Maximum temperature yesterday: 24 °F (at 11:00 PM)
Minimum temperature yesterday: 11 °F (at 2:00 AM)
Average temperature yesterday: 20 °F

High & Low Weather Summary for the Past Weeks

 TemperatureHumidityPressure
High44 °F (Feb 1, 2:00 PM)98% (Feb 4, 8:00 AM)30.52 "Hg (Feb 4, 8:00 AM)
Low11 °F (Feb 8, 2:00 AM)38% (Jan 28, 2:00 PM)29.21 "Hg (Jan 29, 6:00 PM)
Average28 °F79%29.92 "Hg
* Reported Jan 25 7:00 AM — Feb 9 7:00 AM, Summerside, Weather by CustomWeather, © 2016

Note: Actual official high and low records may vary slightly from our data, if they occured in-between our weather recording intervals... More about our weather records

Advertising

Summerside Weather History for the Previous 24 Hours

 ConditionsComfort  
Time TempWeatherWind HumidityBarometerVisibility
7:00 AM
Tue, Feb 9
24 °FCold.28 mph89%29.60 "HgN/A
6:00 AM23 °FCold.31 mph90%29.59 "HgN/A
5:00 AM24 °FCold.30 mph91%29.59 "HgN/A
4:00 AM24 °FCold.33 mph91%29.58 "HgN/A
3:00 AM26 °FChilly.33 mph84%29.60 "HgN/A
2:00 AM24 °FCold.33 mph88%29.60 "HgN/A
1:00 AM24 °FCold.31 mph89%29.62 "HgN/A
12:00 AM24 °FCold.35 mph90%29.66 "HgN/A
11:00 PM
Mon, Feb 8
24 °FCold.35 mph91%29.67 "HgN/A
10:00 PM24 °FCold.36 mph91%29.72 "HgN/A
9:00 PM24 °FCold.31 mph84%29.78 "HgN/A
8:00 PM23 °FCold.37 mph85%29.82 "HgN/A
5:00 PM22 °FCold.31 mph81%29.93 "HgN/A
4:00 PM22 °FCold.32 mph87%29.97 "HgN/A
3:00 PM22 °FCold.30 mph81%29.96 "HgN/A
2:00 PM22 °FCold.28 mph79%30.00 "HgN/A
1:00 PM21 °FCold.30 mph79%30.02 "HgN/A
12:00 PM21 °FCold.26 mph78%30.10 "HgN/A
10:00 AM21 °FCold.26 mph75%30.17 "HgN/A
9:00 AM21 °FCold.24 mph76%30.19 "HgN/A
8:00 AM21 °FCold.23 mph73%30.22 "HgN/A
Weather by CustomWeather, © 2016

See weather overviewHow to use our weather pages